Regional Weather Roundup
Issued by NWS State College, PA

Home | Current Version | Previous Version | Text Only | Print | Product List | Glossary Off
Versions: 1 2 3 4 5 6 7 8 9 10 11 12 13 14 15 16 17 18 19 20 21 22 23 24 25 26 27 28 29 30 31 32 33 34 35 36 37 38 39 40 41 42 43 44 45 46 47 48 49 50

000
ASUS41 KCTP 031910
RWRCTP

REGIONAL WEATHER ROUNDUP
NATIONAL WEATHER SERVICE STATE COLLEGE PA
200 PM EST TUE MAR 03 2015

Note: "fair" indicates few or no clouds below 12,000 feet with no
significant weather and/or obstructions to visibility.

* = STATION THAT DOES NOT REPORT PRECIPITATION /E.G. RAIN...SNOW...ETC/
    THUNDER OR FOG.

PAZ002>004-007>009-013>016-020>023-029>032-032000-
WESTERN PENNSYLVANIA

CITY           SKY/WX    TMP DP  RH WIND       PRES   REMARKS
ERIE           FRZ RAIN  30  24  78 S13G18    29.85F
MEADVILLE      FRZ RAIN  26  22  84 SE7       29.83F
FRANKLIN*      CLOUDY    27  21  80 SE13G21   29.88F
NEW CASTLE     FRZ RAIN  30  26  85 CALM      29.87F FOG
BEAVER COUNTY  LGT RAIN  30  23  74 SE7       29.86F
BUTLER*        CLOUDY    30  23  74 SE9       29.88F
PITTSBURGH INT LGT RAIN  34  23  64 SE9       29.86F
PITTSBURGH     LGT RAIN  36  22  56 SE13      29.86F
INDIANA*       CLOUDY    32  25  74 S18G24    29.94F HAZE
LATROBE        CLOUDY    36  32  87 S12       29.93F
WASHINGTON CO* CLOUDY    37  27  65 S9        29.88F
$$

PAZ004>006-010>012-017>019-024>028-033>037-041-042-045-046-049>053-032000-
CENTRAL PENNSYLVANIA

CITY           SKY/WX    TMP DP  RH WIND       PRES   REMARKS
BRADFORD       MIX PCPN  20  15  81 SE13G21   29.87F WCI   7
DUBOIS         CLOUDY    24  19  81 SE13G22   29.89F WCI  12
CLEARFIELD     MIX PCPN  25  17  72 SE8       29.98F
JOHNSTOWN      FRZ RAIN  26  19  74 S15       29.93F WCI  14
ALTOONA        CLOUDY    27  15  61 S17       30.04F WCI  14
STATE COLLEGE  CLOUDY    25  16  68 S8        30.06F
WILLIAMSPORT   MIX PCPN  23  17  78 E14G21    30.16F WCI  11
SELINSGROVE    MIX PCPN  25  19  78 S9        30.20F
FT INDIANTOWN  FRZ RAIN  26  16  64 SE5       30.21F
CAPITAL CITY   MIX PCPN  29  19  66 SE9       30.21F
HARRISBURG     FRZ RAIN  30  18  60 S13       30.21F
YORK           FRZ RAIN  29  17  61 S12       30.21F
$$

PAZ038>040-043-044-047-048-054-055-060>062-067>071-032000-
EASTERN PENNSYLVANIA

CITY           SKY/WX    TMP DP  RH WIND       PRES   REMARKS
SCRANTON       LGT SNOW  23  17  78 S5        30.16F VSB 3/4
MOUNT POCONO   SNOW      17  12  80 SE10      30.13F VSB 1/2 WCI   5
ALLENTOWN      LGT SNOW  25  19  78 SE5       30.28F VSB 1
QUAKERTOWN*    CLOUDY    27  18  69 SE7       30.27F
READING        MIX PCPN  28  14  55 SE9       30.24F
LANCASTER      FRZ RAIN  28  16  60 S9        30.24F
COATESVILLE    CLOUDY    28  16  59 SE8       30.25F
POTTSTOWN      MIX PCPN  29  12  49 SE5       30.28F
BLUE BELL      CLOUDY    32  16  51 S6        30.26F
DOYLESTOWN     CLOUDY    27  13  55 CALM      30.26F
WILLOW GROVE   NOT AVBL
NORTH PHILA    CLOUDY    33  10  38 VRB5      30.29F
PHILADELPHIA   CLOUDY    33  15  47 S8        30.29F
$$



USA.gov is the U.S. government's official web portal to all federal, state and local government web resources and services.